Probability
0 0 1 1 1 2 3 2 1 1 2 5 6 6 5 4 4 4 3 2 1 0 1 3 3 2 3 3 3 3 3 4 4 4 5 6 6 6 6 6 6 6 6
0 0 1 2 2 3 3 3 2 1 2 3 5 5 5 5 4 3 2 1 1 2 3 4 4 3 3 3 3 3 3 4 5 6 6 6 6 6 6 6 6 6 5
0 0 1 2 3 3 3 3 2 2 1 1 3 3 3 3 2 1 1 1 2 4 5 5 4 3 2 1 1 3 3 4 5 6 6 6 6 6 5 5 4 3 2
0 0 0 1 2 1 1 1 1 1 1 0 1 1 1 1 0 0 0 1 1 3 5 4 2 1 1 0 1 2 3 3 4 4 3 3 4 4 2 2 1 1 0
0 0 0 1 1 0 0 0 0 0 0 0 0 0 0 0 0 0 0 0 0 1 2 2 1 0 0 0 1 2 2 2 2 2 1 1 1 1 0 0 0 0 0
0 0 1 1 0 0 0 0 0 0 0 0 0 0 0 0 0 0 0 0 0 0 1 1 0 0 0 0 0 1 1 1 1 1 0 0 0 0 0 0 0 0 0
1 2 2 2 1 1 1 0 0 0 0 0 0 0 0 0 0 0 0 0 0 0 0 0 0 0 0 0 0 0 0 1 1 1 0 0 0 0 0 1 1 1 1
3 4 4 3 2 2 1 0 0 0 1 1 1 2 1 1 1 1 0 0 0 0 0 0 0 0 1 1 1 1 1 2 2 1 0 0 0 0 1 2 3 3 2
4 5 5 3 2 2 2 1 0 0 1 2 3 4 4 4 3 3 3 3 2 1 1 1 1 1 2 2 2 3 3 4 4 3 2 2 2 3 4 4 5 4 4
4 4 5 3 3 3 3 3 2 1 1 2 4 5 6 6 7 7 7 6 5 4 3 4 4 4 4 3 3 4 5 5 5 5 5 5 6 7 7 7 7 6 6
4 6 6 4 3 3 4 4 4 3 2 3 5 6 7 7 8 9 9 9 8 7 6 6 6 6 5 4 4 4 5 6 6 6 7 8 9 9 9 9 9 8 8
5 8 8 5 3 3 3 4 4 4 4 5 7 8 8 8 8 9 10 9 9 8 8 8 7 7 7 7 6 6 7 9 9 8 9 10 10 10 10 10 10 9 9
5 7 8 5 3 3 4 3 3 3 4 6 9 10 10 9 8 9 9 9 9 8 8 8 8 7 8 9 9 9 10 13 13 12 12 12 13 13 12 11 10 10 10
4 4 5 5 4 4 4 3 2 3 4 6 8 10 10 10 9 8 8 9 9 8 8 8 8 8 8 10 11 11 12 14 16 17 16 15 15 15 13 11 10 10 10
4 4 4 4 3 3 3 3 3 5 6 7 8 9 10 10 9 8 8 9 10 10 9 9 10 10 10 10 10 11 12 14 16 18 18 17 15 13 11 11 10 10 10
4 4 4 4 3 1 2 4 5 7 10 11 12 12 11 10 9 9 9 10 10 11 11 11 12 13 13 10 8 9 12 15 17 18 18 16 13 12 10 9 8 7 7
4 4 4 3 2 1 2 4 6 9 12 14 15 15 13 12 11 12 12 12 11 11 12 12 13 14 14 10 6 6 10 15 17 17 16 15 13 12 11 9 5 4 4
5 4 4 3 2 2 3 5 6 8 10 12 14 14 15 14 13 14 14 13 11 11 11 12 12 13 12 9 5 4 8 13 16 17 17 15 12 11 10 9 6 5 5
5 5 5 4 4 5 6 7 7 6 7 9 9 10 12 13 13 13 14 14 13 11 10 10 11 10 9 8 6 5 8 13 17 18 18 15 11 8 7 8 8 8 8
5 6 6 6 6 6 7 8 8 6 6 7 7 7 8 10 11 12 13 14 13 12 10 9 10 10 10 9 7 7 10 14 16 18 18 15 10 5 3 5 8 8 9
5 5 6 6 6 6 6 6 6 5 6 6 5 4 5 7 9 11 12 12 13 12 10 10 11 12 11 10 7 6 9 12 13 14 15 13 7 2 1 2 5 6 6
4 4 5 4 3 3 3 3 3 3 4 4 3 2 3 4 6 8 9 11 12 12 11 12 13 13 12 9 6 4 4 7 9 10 11 9 4 0 0 1 2 2 2
2 3 2 1 1 1 1 1 1 1 2 2 1 1 1 2 4 6 8 10 12 13 13 13 14 14 12 8 5 3 2 2 5 7 6 4 1 0 0 0 0 0 1
1 1 1 0 0 0 0 0 0 0 1 1 1 1 1 2 3 5 6 8 12 15 16 16 16 15 12 8 6 4 2 1 2 4 4 2 1 0 1 1 1 2 2
1 1 1 1 0 0 0 0 0 0 1 2 3 3 3 3 4 3 3 5 9 12 15 17 18 15 11 8 6 4 3 1 1 2 3 3 2 2 2 3 4 4 3
2 2 2 2 1 0 0 0 0 1 2 3 6 5 4 4 3 2 1 3 5 7 10 15 17 14 10 7 4 3 2 1 0 1 3 3 3 3 3 4 4 4 4
Wind_Speed
4 3 3 4 4 4 4 3 3 2 3 2 2 2 1 1 0 1 1 1 2 2 2 2 2 2 2 1 2 1 1 0 1 1 1 2 1 1 2 2 2 3 4
3 4 4 4 4 4 4 3 3 3 2 2 2 2 2 1 1 0 0 0 1 2 2 3 2 2 2 2 2 2 1 0 1 1 1 2 3 2 1 1 2 2 2
7 6 6 5 5 5 5 4 3 3 3 3 2 2 2 2 1 1 1 1 0 1 2 2 2 2 2 2 2 2 3 1 0 1 1 1 2 2 2 1 1 1 1
7 7 6 6 7 6 5 4 3 3 2 3 3 3 2 1 1 0 0 1 1 0 1 2 3 2 2 2 2 2 2 2 1 1 1 2 2 1 2 2 2 2 2
9 9 9 8 7 6 5 4 4 3 2 3 3 3 2 1 0 0 0 1 1 1 0 1 2 2 2 2 1 1 2 2 2 2 1 1 1 1 2 3 2 2 2
8 8 7 6 5 5 5 5 4 3 3 3 3 3 3 2 1 1 0 0 1 1 1 1 2 2 2 2 2 2 2 2 3 2 2 2 2 2 2 3 3 3 2
8 8 8 8 7 7 6 5 5 4 3 4 3 4 4 3 3 2 2 1 0 1 1 1 1 1 2 2 2 2 2 3 3 3 3 3 3 2 2 2 2 3 2
8 9 9 9 8 8 7 6 6 5 4 5 4 3 3 3 2 2 2 2 2 2 1 1 1 1 2 2 2 2 2 2 3 3 3 3 3 3 3 3 2 2 2
8 8 8 8 8 7 7 7 6 5 4 5 4 3 3 3 3 2 2 2 2 2 1 1 1 1 2 2 2 2 2 2 2 2 2 2 2 2 3 3 3 3 3
6 7 7 7 7 7 6 6 6 5 5 4 4 4 4 3 2 2 2 2 2 2 1 1 2 2 2 2 2 2 2 2 2 2 2 2 2 2 2 2 2 3 3
7 7 7 6 6 5 5 5 5 4 4 4 4 3 2 2 2 2 3 3 2 2 2 2 2 2 2 2 2 3 3 3 2 2 2 3 3 2 2 2 2 2 3
5 6 6 6 6 6 6 6 6 5 5 4 4 4 3 2 2 3 3 3 3 3 3 2 2 3 3 3 3 3 3 3 3 3 3 3 2 3 2 2 3 3 3
3 4 5 5 6 6 6 6 5 5 5 4 4 3 3 3 4 4 3 3 3 3 3 2 3 4 3 3 4 4 4 4 4 4 4 4 3 4 3 3 3 3 3
3 4 4 4 5 5 6 6 5 5 5 5 5 4 4 5 4 3 3 3 3 3 3 4 4 4 4 4 4 4 4 4 4 4 5 5 5 5 5 4 4 3 3
3 4 4 3 4 4 4 5 5 5 5 5 5 5 4 4 3 3 3 3 3 3 3 3 4 4 4 4 4 4 4 4 4 4 5 5 6 6 5 4 4 3 3
2 3 3 3 4 4 4 4 4 4 5 5 5 4 3 3 3 3 3 3 3 3 2 3 4 4 4 5 6 4 4 4 4 5 5 5 5 6 7 7 6 5 5
1 2 3 3 3 3 3 4 4 3 4 5 4 3 4 4 4 4 3 3 4 3 3 4 4 4 5 5 5 6 4 5 5 5 4 4 4 4 4 5 5 5 6
0 1 2 2 1 1 1 2 2 3 4 4 3 3 3 4 3 3 4 4 4 4 4 4 4 4 5 5 5 5 4 4 5 5 5 5 5 5 4 3 3 4 5
1 0 1 2 2 2 2 3 2 2 3 3 2 3 3 3 3 4 5 4 3 3 3 3 4 4 5 5 5 3 2 4 5 5 5 5 5 6 5 4 4 4 4
1 2 2 3 2 1 2 3 2 2 2 3 3 3 3 3 4 4 4 3 3 4 3 3 4 4 5 5 5 3 2 4 4 4 5 6 6 6 5 5 5 5 5
2 2 3 3 1 1 2 2 1 2 3 2 1 2 2 3 4 3 3 3 3 3 3 4 4 4 5 5 5 5 3 4 4 4 4 4 5 6 6 6 6 7 5
2 3 3 2 2 2 2 1 1 2 1 1 1 2 2 3 2 3 3 3 3 3 4 4 4 4 4 4 4 5 5 4 4 4 4 4 5 5 6 5 6 7 5
1 1 2 1 2 1 1 1 2 2 1 1 1 2 2 2 2 3 3 3 3 3 3 3 4 4 3 3 4 4 5 5 3 4 5 5 5 5 4 5 5 4 3
1 1 2 1 1 2 1 1 2 1 1 1 2 2 2 2 2 2 2 3 3 3 3 4 4 4 3 3 2 2 2 3 3 3 4 4 4 3 3 3 2 2 2
0 0 1 0 2 2 2 2 2 1 1 1 2 2 2 2 2 2 3 3 4 4 5 5 4 4 4 5 4 3 2 2 3 2 1 1 1 1 2 2 2 2 2
1 0 0 1 2 2 2 3 2 1 1 1 2 2 2 2 2 2 3 3 4 5 5 6 5 4 5 5 4 5 4 3 2 1 1 1 1 2 2 2 2 2 2
Wind_Direction
200 161 150 143 135 129 129 133 130 124 117 109 119 121 137 177 211 225 212 195 184 168 159 164 161 164 171 173 154 143 144 169 113 69 337 322 292 267 258 249 239 240 240
180 170 159 151 151 156 155 148 151 145 142 136 132 136 135 154 185 266 354 241 188 177 172 169 170 169 165 154 153 150 134 119 95 102 28 336 338 330 302 267 238 246 244
193 187 176 174 168 170 175 175 170 165 162 145 114 100 77 52 40 39 20 341 193 161 158 164 162 169 170 180 188 172 166 189 224 164 163 181 273 316 319 301 289 286 266
193 189 182 180 183 185 176 168 161 158 156 146 141 143 148 165 212 203 262 359 24 88 142 152 159 164 169 185 200 182 183 176 217 237 220 207 192 217 309 311 303 300 282
192 189 190 189 188 180 173 170 156 156 161 154 156 151 159 182 172 100 45 354 348 1 124 157 153 163 177 190 193 176 191 197 205 208 203 214 218 206 218 280 306 313 285
194 190 187 179 178 174 169 164 160 170 171 167 167 170 178 176 164 189 224 299 333 337 328 166 164 173 184 199 197 198 203 210 216 213 200 193 197 207 211 243 278 292 292
184 181 176 175 178 179 176 170 168 181 182 177 184 187 183 175 186 201 208 221 269 276 272 212 181 191 203 202 195 203 221 219 219 221 221 218 223 205 203 220 257 276 287
184 185 183 181 181 182 179 174 177 189 187 184 192 188 181 183 199 204 200 211 230 239 242 204 199 209 209 208 197 214 234 225 232 238 229 228 234 216 210 209 216 266 282
184 187 184 181 181 182 183 181 182 190 193 190 186 187 192 195 205 207 205 222 235 235 223 210 220 232 225 215 202 226 242 238 239 242 236 236 243 230 228 222 211 216 260
177 176 180 184 186 182 178 170 175 187 197 193 195 196 198 202 204 198 219 231 237 237 216 216 227 239 239 227 213 233 243 233 238 230 232 241 247 246 236 225 223 220 231
183 180 178 177 176 169 168 170 177 182 194 195 194 195 197 197 196 211 231 235 239 230 226 227 230 239 244 237 220 229 225 223 239 244 236 249 244 243 239 228 227 227 223
179 172 167 160 162 166 170 176 181 188 199 193 187 194 191 190 208 227 236 234 234 234 231 227 229 241 245 233 225 236 233 226 236 246 244 256 252 244 242 234 237 236 227
146 148 150 159 168 172 172 176 183 191 189 179 184 191 193 201 216 232 240 235 232 239 237 228 233 241 239 230 229 228 234 233 237 240 242 251 244 246 245 240 242 243 241
137 142 154 165 171 175 177 181 192 193 184 180 187 199 209 211 216 221 229 228 226 232 237 234 237 241 239 234 230 227 234 240 246 243 241 244 239 240 239 240 239 237 238
131 152 160 168 171 174 181 187 193 187 180 178 193 211 216 213 211 213 223 229 231 240 241 240 246 247 240 239 237 235 236 240 253 258 253 249 243 239 235 236 228 221 226
155 153 153 162 177 183 188 192 195 188 174 186 205 209 205 210 215 217 220 229 242 252 248 246 249 255 260 258 245 240 244 240 243 254 260 257 253 248 243 241 228 214 217
157 162 175 190 191 193 190 193 192 171 175 197 211 207 205 215 223 225 222 229 237 240 246 251 251 259 269 271 264 248 240 241 244 248 256 262 265 253 252 247 239 236 232
132 174 172 166 161 167 171 172 154 163 175 194 208 207 207 219 224 225 234 238 235 236 241 251 255 260 275 277 271 262 241 247 251 253 253 252 258 251 238 237 241 246 243
198 177 159 138 131 135 144 124 125 154 168 193 208 209 204 214 222 233 243 241 237 243 245 251 251 255 274 274 270 263 248 253 258 259 259 255 255 252 233 226 241 256 263
83 91 83 83 90 101 110 112 130 148 202 229 229 216 206 210 222 237 245 247 241 246 253 262 256 250 262 269 263 239 236 253 264 270 267 259 255 254 230 223 230 246 256
84 87 83 79 68 69 103 120 143 236 251 259 265 245 230 224 218 226 239 246 249 258 262 265 268 262 264 269 261 237 226 241 255 265 270 266 255 253 245 237 236 242 246
74 79 81 59 33 66 100 106 263 271 282 289 291 283 268 255 243 223 232 236 234 248 260 267 277 274 269 267 264 244 238 243 243 255 263 267 268 263 255 245 244 244 240
95 88 104 77 15 32 99 113 296 310 341 350 305 289 291 278 254 230 231 234 226 237 256 261 268 279 280 274 264 253 253 251 248 260 265 270 268 268 258 247 246 235 222
59 76 97 98 333 336 350 281 292 327 12 327 298 297 299 292 280 256 236 234 238 239 251 259 265 273 274 270 274 268 258 259 260 276 282 280 270 260 261 262 244 223 217
305 96 148 212 282 308 315 305 296 334 346 315 306 305 293 281 288 285 261 246 237 232 234 246 248 254 264 262 253 245 251 247 243 268 294 305 315 308 301 289 270 239 215
196 75 274 249 261 275 295 299 294 257 243 293 296 292 287 281 276 282 300 291 269 271 247 240 237 247 248 260 249 242 243 239 207 174 247 269 275 277 278 275 273 255 244